Location: Dompnac
(44.5644°N, 4.1026°E)
Time: 22:41:39
(UTC+00:00)

Cosmos 2082 Rocket - Visible Passes

Search period start: 24 January 2021 00:00
Search period end: 03 February 2021 00:00
Orbit: 831 x 855 km, 71.0° (Epoch: 24 January)

Date Brightness Start Highest point End Pass type
(mag) Time Alt. Az. Time Alt. Az. Time Alt. Az.
24 Jan 2.9 18:38:23 10° N 18:43:03 34° NE 18:43:03 34° NE visible
24 Jan 4.2 20:22:28 10° NW 20:24:57 24° NW 20:24:57 24° NW visible
25 Jan 2.8 18:23:52 10° N 18:29:02 34° NE 18:29:42 33° ENE visible
25 Jan 3.7 20:07:52 10° NW 20:11:37 34° WNW 20:11:37 34° WNW visible
26 Jan 2.9 18:09:20 10° N 18:14:28 33° NE 18:16:35 25° E visible
26 Jan 3.2 19:53:18 10° NW 19:58:31 43° WSW 19:58:31 43° WSW visible
27 Jan 2.9 17:54:48 10° N 17:59:54 32° NE 18:03:50 15° ESE visible
27 Jan 3.1 19:38:43 10° NW 19:44:08 45° WSW 19:45:48 35° SSW visible
28 Jan 3.0 17:40:17 10° N 17:45:19 30° NE 17:50:18 10° ESE visible
28 Jan 3.1 19:24:09 10° NW 19:29:36 47° WSW 19:33:41 17° S visible
29 Jan 3.0 17:25:45 10° N 17:30:44 29° NE 17:35:40 10° ESE visible
29 Jan 3.1 19:09:34 10° NW 19:15:03 49° WSW 19:20:29 10° S visible
30 Jan 3.0 18:55:00 10° NW 19:00:31 51° WSW 19:05:58 10° S visible
31 Jan 3.0 18:40:25 10° NW 18:45:58 53° WSW 18:51:27 10° S visible
01 Feb 2.9 18:25:50 10° NNW 18:31:25 56° WSW 18:36:56 10° S visible
02 Feb 2.9 18:11:16 10° NNW 18:16:52 58° WSW 18:22:25 10° S visible
